User: anonymous   Login
Location: Unspecified
(0.0000°N, 0.0000°E)
Time: 01:42:45
(UTC+00:00)
Language:

NOSS 2-2 (E) - Orbit

View from above orbital plane
View from above orbital plane
View from above satellite
View from above satellite

Ground track
Ground track

The orbit data is extracted from the following two-line orbital elements,

1 21809U 91076E   17314.24241790 0.00000100  00000-0  30624-4 0    01
2 21809  63.3460  81.1373 0758000  23.4951 336.5049 13.41376518    00
Epoch (UTC): 10 November 2017 05:49:04
Eccentricity: 0.0758000
inclination: 63.3460°
perigee height: 537 km
apogee height: 1671 km
right ascension of ascending node: 81.1373°
argument of perigee: 23.4951°
revolutions per day: 13.41376518
mean anomaly at epoch: 336.5049°
orbit number at epoch: 0

The dashed part of the orbit path shows where the satellite is in the earth's shadow,  

DLR